CST,Max TemperatureF,Mean TemperatureF,Min TemperatureF,Max Dew PointF,MeanDew PointF,Min DewpointF,Max Humidity, Mean Humidity, Min Humidity, Max Sea Level PressureIn, Mean Sea Level PressureIn, Min Sea Level PressureIn, Max VisibilityMiles, Mean VisibilityMiles, Min VisibilityMiles, Max Wind SpeedMPH, Mean Wind SpeedMPH, Max Gust SpeedMPH,PrecipitationIn, CloudCover, Events, WindDirDegrees
2012-11-1,34,29,24,28,25,21,100,85,69,30.20,30.14,30.08,,,,18,10,23,0.00,,,84
2012-11-2,31,29,27,30,26,23,92,85,78,30.16,30.12,30.10,,,,15,9,18,0.22,,,134
2012-11-3,31,30,28,30,26,24,100,89,78,30.30,30.24,30.17,,,,9,5,12,0.00,,,12
2012-11-4,34,31,28,33,29,25,96,91,85,30.27,30.20,30.14,,,,12,8,,0.07,,,160
2012-11-5,44,39,33,43,35,32,100,93,86,30.27,30.03,29.80,,,,22,9,26,0.01,,,249
2012-11-6,48,42,35,33,29,25,76,65,54,30.13,30.07,29.96,,,,26,19,32,0.00,,,303
2012-11-7,53,40,26,36,32,23,96,73,50,30.12,29.87,29.69,,,,23,9,30,0.00,,,176
2012-11-8,48,41,33,41,30,23,92,82,71,30.22,30.07,29.77,,,,26,14,32,0.01,,,17
2012-11-9,27,24,21,24,22,19,100,92,84,30.22,30.10,29.96,,,,29,20,35,0.00,,,78
2012-11-10,24,21,18,22,17,11,96,90,84,29.95,29.86,29.80,,,,22,13,26,0.24,,,355
2012-11-11,16,13,9,12,8,2,88,81,73,30.06,29.93,29.86,,,,25,20,38,0.01,,,294
2012-11-12,24,15,5,17,8,-2,81,75,69,30.24,30.18,30.08,,,,25,14,32,0.00,,,283
2012-11-13,35,25,15,28,22,14,96,83,70,30.23,30.20,30.18,,,,9,1,12,0.00,,,260
2012-11-14,42,29,16,32,25,13,100,81,62,30.19,30.11,30.03,,,,10,3,12,0.00,,,252
2012-11-15,37,28,19,27,22,17,92,76,59,30.46,30.37,30.18,,,,18,9,22,0.00,,,232
2012-11-16,42,36,30,32,28,22,82,73,63,30.31,30.10,30.01,,,,21,13,26,0.00,,,172
2012-11-17,45,35,25,35,29,23,100,83,65,30.10,30.06,30.01,,,,8,2,8,0.00,,,85
2012-11-18,46,36,26,37,32,26,100,88,76,30.01,29.91,29.83,,,,14,6,16,0.00,,,121
2012-11-19,47,37,27,34,30,25,92,75,58,30.17,30.10,29.96,,,,13,7,,0.00,,,252
2012-11-20,50,41,32,38,31,27,76,66,56,30.07,29.95,29.88,,,,10,7,,0.00,,,168
2012-11-21,51,42,32,37,33,30,96,76,56,29.88,29.73,29.61,,,,10,4,14,0.00,,,125
2012-11-22,35,27,18,33,19,7,100,86,71,30.52,30.13,29.76,,,,31,21,38,0.00,,,312
2012-11-23,21,14,7,15,9,3,88,75,62,30.61,30.51,30.24,,,,21,10,25,0.00,,,314
2012-11-24,44,33,22,32,21,16,77,72,67,30.19,29.97,29.80,,,,26,15,33,0.01,,,258
2012-11-25,26,18,10,23,11,-1,92,74,56,30.43,30.17,30.01,,,,25,13,30,0.00,,,318
2012-11-26,34,18,1,22,12,-3,88,75,61,30.47,30.34,30.17,,,,18,8,24,0.00,,,270
2012-11-27,29,22,15,26,20,15,100,89,78,30.29,30.21,30.14,,,,16,7,18,0.00,,,315
2012-11-28,35,29,22,25,22,19,100,82,64,30.28,30.15,30.05,,,,14,5,20,0.00,,,137
2012-11-29,21,16,11,19,9,5,100,81,61,30.19,30.16,30.12,,,,21,13,25,0.00,,,103
2012-11-30,32,26,19,27,22,16,100,86,72,30.16,29.93,29.70,,,,17,11,21,0.00,,,156